COSMOS 2266

Satellite information

Favourite Embed

Satellite Type and Status

PAYLOADIN ORBIT

Key statistics

Satellite COSMOS 2266 at a glance.

Uptime

11509

Days in orbit

Revolutions

≈ 13.8

Per day

Orbit

LEO

Low Earth Orbit

Inclination

83.0

Latest

Satellite identification and parameters

Extended collection of information and parameters for COSMOS 2266.

Object identification

Identified? True

Debris? False

Object name: COSMOS 2266

International designator: 1993-070A

Object number (NORAD): 22888

Object ID (CCSDS): 22888

Country: COMMONWEALTH OF INDEPENDENT STATES (CIS)

Current information (Y/N): Y

RCS size: LARGE

Orbital parameters

Period: 104.717 minutes

Inclination: 82.9542 deg

SMA: 7359.335 km

Apoapsis: 1015.67 km

Periapsis: 946.73 km

RAAN: 21.9857 deg

Eccentricy: 0.0046839

Argument of periapsis: 240.8374 deg

Mean anomaly: 183.4348 deg

Mean motion: 13.75133604 rev/day

Mean motion (dot): 0.00000057 rev/day2

B* drag term: 0.000043891 1/REarth

Two-line elements (TLE)

Creation date: May 7, 2025, 3:14 a.m.

Reference frame: TEME

Reference center: EARTH

Epoch: May 6, 2025, 7:03 p.m. UTC

TLE line 0: 0 COSMOS 2266

TLE line 1: 1 22888U 93070A 25126.79421241 .00000057 00000-0 43891-4 0 9994

TLE line 2: 2 22888 82.9542 21.9857 0046839 240.8374 183.4348 13.75133604578172

Live tracking on map

Real-time ground track for satellite COSMOS 2266.

In-orbit conjunctions

A list of the most updated potential collisions computed for object COSMOS 2266.

Target Orbit TCA Probability of collision Miss distance Type
CZ-6A DEB SSO 2025-02-05 10:21:51 0.0001023214 77.0 (m) DEBRIS
COSMOS 2251 DEB LEO 2025-01-29 07:50:19 0.01472001 56.0 (m) DEBRIS
CZ-2D R/B SSO 2024-10-11 03:57:18 0.00180923 147.0 (m) ROCKET BODY

Associated space launch

Navigation satellite providing location information for the Tsiklon-B navigation system

COSMOS 2266 was lifted into orbit during the mission ‘Kosmos-3M | Parus 81’, on board a Kosmos-3M space rocket.

The launch took place on Nov. 2, 1993, 12:10 p.m. from 132/1 (132L).

For more information about the launch, click the button.

Launch to space Kosmos-3M | Parus 81
Kosmos-3M | Parus 81

Agency: N/A

Status: Launch Successful

Launch date: Nov. 2, 1993, 12:10 p.m. UTC

Rocket: Kosmos-3M

Launch pad: 132/1 (132L)

Location: Plesetsk Cosmodrome, Russian Federation

...

Latest news about this satellite

There are no fresh news available about this satellite. Check back as we update our databases every day.


Newsletter sign-up

Weekly statistics, charts and insights to help you stay on top of the space industry.